SNUSAT-1B (42733 NORAD) Tracking and Keplerian Element Data

This shows tracking and keplerian element data for the satellite.

Feedback or suggestion? Click here.




ElementValue
Catalog42733
NameSNUSAT-1B
Epoch Orbit8430
Epoch Day319.96800528
Epoch Year2018
RAAN296.9425
Inclination51.629
Eccentricity0.0006913
Argument of Perigee60.1673
Mean Anonmoly300.0015
Mean Motion15.8111109
Decay Rate0.00049169
L11 42733U 98067MN 18319.96800528 .00049169 00000-0 24772-3 0 9993
L22 42733 51.6290 296.9425 0006913 60.1673 300.0015 15.81111090 84304

Live tracking and technical data element details for SNUSAT-1B (NORAD 42733). SNUSAT-1B can be tracked NOW for your location showing map with azimuth and elevation plus other details from your city location.

Track the satellite on the map from your city or location and see movement details for azimuth, elevation, latitude, longitude, range, height, and movement on the map or in text.







IsCatalogInMostPopularTable: catalog: 42733, numindb: 158
Update: records affected: 1



GetName: 42733 SNUSAT-1B

Hit Count: updated at: Fri, 16 Nov 2018 09:41:04 GMT